Temp
-14 -14 -14 -14 -14 -15 -15 -15 -15 -15 -15 -14 -15 -14 -15 -15 -15 -14 -14 -14 -15 -15 -15 -16 -16 -16 -17 -18 -18 -19 -19 -19 -19 -19 -19 -19 -20 -20 -20 -19 -18 -17 -16 -16
-14 -14 -14 -14 -14 -15 -15 -15 -15 -15 -15 -14 -15 -14 -15 -15 -14 -14 -15 -15 -15 -16 -16 -16 -17 -17 -18 -19 -19 -19 -20 -20 -20 -20 -21 -21 -21 -21 -21 -21 -21 -20 -19 -18
-15 -15 -15 -15 -14 -15 -15 -15 -15 -15 -15 -15 -15 -14 -15 -15 -15 -15 -15 -15 -16 -16 -16 -17 -18 -18 -19 -19 -20 -20 -20 -20 -21 -21 -21 -21 -21 -22 -22 -22 -22 -22 -21 -21
-15 -16 -16 -15 -15 -15 -15 -15 -15 -15 -15 -15 -16 -14 -15 -15 -15 -15 -15 -16 -16 -16 -17 -17 -18 -19 -20 -20 -20 -20 -21 -21 -21 -21 -22 -22 -22 -23 -22 -22 -22 -22 -22 -22
-16 -16 -16 -16 -16 -16 -15 -15 -16 -16 -15 -15 -16 -15 -15 -15 -15 -16 -16 -16 -17 -17 -17 -18 -19 -19 -20 -20 -20 -21 -21 -21 -21 -22 -22 -23 -23 -23 -23 -23 -23 -23 -23 -23
-18 -18 -18 -18 -18 -17 -17 -16 -16 -16 -16 -15 -16 -16 -15 -15 -16 -16 -17 -17 -17 -17 -18 -18 -18 -19 -20 -20 -21 -21 -21 -21 -21 -22 -23 -24 -24 -24 -24 -24 -24 -24 -25 -25
-18 -18 -18 -18 -18 -17 -17 -17 -16 -16 -16 -16 -16 -16 -16 -16 -17 -17 -17 -17 -17 -17 -17 -17 -18 -19 -20 -21 -21 -20 -20 -21 -21 -22 -24 -25 -25 -26 -26 -26 -26 -26 -26 -26
-18 -18 -18 -18 -18 -17 -17 -17 -17 -16 -16 -16 -17 -16 -16 -17 -17 -17 -17 -17 -17 -17 -17 -18 -18 -19 -20 -20 -21 -20 -21 -21 -21 -22 -24 -26 -26 -27 -27 -27 -27 -27 -27 -27
-18 -18 -18 -18 -17 -17 -17 -17 -17 -17 -16 -16 -17 -17 -17 -17 -17 -17 -18 -17 -17 -17 -18 -18 -18 -19 -20 -20 -20 -20 -21 -21 -22 -22 -24 -26 -27 -27 -27 -27 -28 -27 -27 -28
-18 -18 -18 -18 -17 -18 -18 -17 -17 -17 -16 -16 -17 -17 -17 -17 -17 -18 -18 -17 -17 -17 -17 -18 -18 -19 -20 -21 -21 -20 -21 -21 -22 -22 -24 -26 -27 -27 -28 -28 -28 -28 -27 -28
-19 -18 -18 -18 -18 -18 -18 -18 -18 -17 -17 -17 -17 -18 -18 -18 -18 -18 -18 -17 -17 -17 -17 -18 -18 -19 -21 -21 -21 -20 -21 -21 -22 -22 -24 -25 -27 -27 -28 -28 -28 -28 -27 -27
-19 -18 -18 -18 -18 -19 -18 -18 -17 -17 -18 -18 -18 -17 -18 -18 -18 -18 -18 -18 -18 -18 -17 -18 -19 -19 -20 -20 -21 -21 -21 -21 -22 -22 -23 -24 -25 -27 -28 -28 -28 -28 -27 -27
-19 -18 -18 -18 -18 -18 -18 -18 -17 -18 -18 -18 -18 -18 -18 -18 -18 -18 -18 -18 -18 -18 -17 -18 -18 -19 -19 -20 -20 -21 -21 -22 -22 -22 -23 -24 -25 -25 -27 -27 -27 -27 -27 -27
-19 -18 -18 -18 -18 -19 -19 -18 -18 -17 -18 -18 -18 -18 -18 -18 -18 -18 -18 -18 -18 -18 -18 -18 -18 -18 -19 -20 -20 -20 -21 -22 -22 -22 -23 -23 -24 -24 -25 -26 -26 -26 -26 -26
-19 -18 -18 -18 -18 -18 -18 -18 -18 -18 -18 -18 -18 -18 -18 -18 -18 -18 -18 -18 -18 -18 -18 -18 -18 -18 -19 -19 -20 -20 -20 -21 -22 -22 -22 -22 -23 -23 -24 -25 -25 -26 -26 -26
-19 -19 -18 -18 -18 -18 -18 -18 -18 -18 -18 -18 -18 -18 -19 -19 -19 -19 -19 -19 -19 -19 -18 -18 -18 -19 -19 -19 -19 -20 -20 -20 -21 -22 -22 -22 -23 -23 -23 -23 -24 -25 -26 -25
-18 -18 -18 -18 -18 -19 -18 -18 -18 -18 -18 -18 -18 -19 -19 -19 -19 -19 -19 -19 -19 -19 -19 -18 -18 -18 -19 -19 -19 -19 -20 -20 -21 -21 -21 -22 -22 -22 -23 -23 -23 -23 -23 -23
-19 -18 -18 -18 -18 -19 -18 -18 -18 -18 -18 -18 -19 -19 -19 -19 -19 -19 -19 -19 -19 -19 -19 -19 -18 -18 -18 -18 -19 -19 -20 -20 -20 -20 -21 -21 -21 -22 -22 -22 -22 -22 -22 -22
-19 -19 -18 -19 -19 -19 -19 -19 -18 -18 -18 -18 -18 -19 -19 -19 -19 -19 -19 -19 -19 -19 -19 -19 -19 -19 -18 -18 -18 -19 -19 -19 -19 -20 -20 -20 -20 -21 -21 -22 -22 -22 -22 -22
-20 -19 -19 -19 -19 -20 -19 -19 -19 -18 -18 -18 -18 -18 -18 -19 -19 -19 -19 -19 -19 -19 -19 -19 -19 -19 -19 -19 -19 -19 -19 -19 -19 -19 -19 -19 -20 -20 -20 -20 -21 -21 -21 -21
-20 -20 -20 -19 -19 -20 -19 -19 -19 -19 -19 -18 -18 -18 -18 -18 -19 -19 -19 -19 -19 -19 -19 -19 -19 -19 -19 -19 -19 -19 -19 -19 -19 -19 -19 -19 -19 -19 -19 -20 -20 -20 -20 -20
-21 -21 -20 -20 -20 -19 -19 -19 -19 -18 -18 -18 -18 -18 -18 -18 -18 -18 -19 -19 -19 -19 -19 -19 -19 -19 -19 -19 -19 -19 -19 -19 -19 -19 -19 -19 -19 -20 -20 -20 -20 -20 -20 -20
-21 -20 -20 -20 -20 -20 -20 -19 -19 -19 -19 -18 -18 -18 -18 -18 -18 -18 -18 -18 -18 -19 -19 -19 -19 -19 -19 -19 -19 -19 -19 -19 -19 -19 -19 -19 -20 -20 -20 -20 -20 -20 -20 -20
-21 -21 -21 -21 -20 -20 -20 -20 -20 -19 -19 -18 -18 -18 -18 -18 -18 -18 -18 -18 -18 -18 -18 -19 -19 -19 -19 -19 -19 -19 -19 -19 -19 -19 -19 -19 -20 -20 -20 -20 -20 -20 -20 -20
-22 -21 -21 -21 -21 -21 -21 -20 -20 -19 -19 -19 -19 -19 -18 -18 -18 -18 -18 -18 -18 -18 -18 -18 -18 -18 -18 -19 -19 -19 -19 -19 -19 -19 -19 -19 -19 -19 -19 -19 -20 -20 -20 -20
-22 -22 -22 -21 -21 -21 -21 -20 -20 -19 -19 -19 -19 -19 -18 -18 -18 -17 -18 -18 -18 -18 -18 -18 -18 -18 -18 -19 -19 -19 -19 -19 -19 -19 -19 -19 -19 -19 -19 -19 -19 -19 -20 -20
Height
5688 5687 5686 5681 5680 5678 5676 5675 5675 5674 5670 5669 5671 5671 5671 5666 5662 5660 5657 5652 5645 5638 5632 5626 5620 5614 5608 5601 5595 5589 5584 5577 5570 5564 5560 5557 5555 5552 5552 5553 5557 5560 5567 5575
5679 5678 5675 5673 5671 5670 5667 5665 5666 5663 5662 5660 5661 5662 5660 5656 5652 5650 5645 5639 5633 5627 5622 5616 5609 5603 5595 5589 5582 5576 5569 5561 5554 5548 5541 5536 5533 5532 5531 5529 5532 5535 5540 5549
5669 5667 5665 5663 5662 5660 5658 5656 5655 5654 5654 5652 5651 5652 5652 5648 5644 5640 5634 5628 5623 5618 5612 5605 5598 5591 5584 5577 5570 5562 5554 5546 5539 5532 5527 5521 5516 5513 5511 5510 5511 5513 5519 5525
5658 5656 5654 5653 5652 5650 5648 5647 5645 5644 5644 5645 5645 5639 5644 5638 5633 5629 5624 5618 5614 5610 5604 5596 5588 5580 5572 5564 5556 5548 5540 5531 5523 5516 5510 5504 5498 5493 5489 5490 5491 5494 5499 5507
5646 5643 5642 5642 5642 5640 5640 5638 5637 5637 5637 5636 5638 5634 5633 5628 5623 5619 5614 5610 5607 5602 5595 5587 5579 5571 5562 5553 5545 5536 5528 5518 5510 5501 5492 5485 5477 5472 5469 5467 5470 5474 5479 5487
5635 5633 5632 5632 5630 5631 5631 5630 5630 5630 5629 5630 5629 5627 5627 5619 5615 5611 5608 5604 5600 5594 5587 5579 5570 5560 5551 5542 5534 5526 5517 5507 5497 5487 5475 5466 5458 5452 5449 5449 5452 5456 5462 5467
5628 5626 5624 5623 5622 5622 5622 5621 5622 5623 5622 5624 5622 5619 5615 5611 5607 5604 5601 5597 5593 5586 5579 5571 5561 5551 5540 5532 5524 5517 5508 5498 5487 5474 5461 5450 5441 5436 5434 5434 5438 5442 5447 5452
5619 5619 5616 5614 5614 5613 5612 5613 5614 5613 5616 5617 5616 5612 5607 5604 5600 5598 5595 5591 5586 5579 5572 5563 5553 5542 5532 5524 5517 5509 5500 5490 5478 5464 5449 5438 5430 5426 5425 5426 5429 5433 5437 5438
5611 5611 5608 5606 5604 5603 5601 5605 5606 5608 5609 5609 5610 5606 5603 5598 5596 5594 5590 5586 5580 5573 5565 5556 5547 5536 5526 5519 5511 5503 5494 5484 5472 5458 5443 5431 5425 5421 5420 5421 5423 5426 5427 5430
5606 5603 5601 5598 5596 5593 5595 5598 5601 5603 5604 5604 5604 5600 5597 5595 5593 5590 5585 5581 5575 5568 5560 5552 5542 5531 5522 5515 5507 5499 5490 5480 5469 5456 5442 5430 5423 5420 5419 5419 5419 5420 5423 5428
5601 5599 5596 5592 5591 5590 5591 5593 5596 5599 5599 5596 5597 5597 5594 5591 5589 5585 5581 5577 5571 5564 5557 5548 5538 5528 5519 5512 5505 5496 5488 5478 5468 5457 5444 5433 5425 5421 5420 5420 5419 5420 5424 5430
5596 5593 5590 5588 5585 5586 5590 5591 5593 5595 5596 5593 5593 5593 5590 5589 5586 5582 5578 5574 5569 5563 5555 5546 5537 5528 5518 5511 5503 5495 5487 5479 5469 5459 5448 5438 5429 5423 5420 5420 5419 5420 5426 5432
5591 5588 5585 5584 5584 5583 5586 5589 5591 5591 5591 5591 5590 5591 5588 5586 5583 5581 5577 5572 5567 5562 5554 5546 5538 5529 5520 5512 5504 5497 5489 5480 5472 5464 5454 5445 5436 5428 5423 5421 5421 5424 5429 5437
5587 5585 5582 5580 5579 5581 5583 5585 5586 5587 5588 5588 5588 5587 5587 5585 5582 5579 5576 5572 5567 5561 5554 5547 5540 5532 5523 5515 5507 5500 5492 5484 5476 5469 5461 5453 5445 5438 5432 5428 5427 5429 5433 5439
5583 5581 5578 5576 5575 5576 5578 5581 5583 5584 5585 5585 5586 5586 5585 5584 5581 5579 5576 5572 5567 5561 5555 5548 5542 5535 5526 5519 5511 5503 5495 5487 5481 5475 5468 5461 5455 5449 5443 5439 5437 5437 5440 5445
5580 5578 5575 5573 5572 5573 5577 5579 5581 5582 5582 5584 5585 5585 5584 5583 5582 5579 5576 5572 5567 5562 5557 5551 5544 5537 5530 5523 5516 5509 5501 5493 5486 5480 5474 5468 5463 5459 5455 5451 5448 5449 5451 5454
5576 5574 5572 5570 5569 5571 5576 5577 5578 5579 5580 5583 5584 5584 5583 5582 5581 5579 5576 5573 5568 5563 5558 5553 5547 5541 5535 5528 5522 5514 5507 5499 5493 5487 5481 5475 5471 5467 5465 5464 5462 5463 5465 5467
5571 5570 5568 5567 5566 5569 5572 5574 5575 5577 5578 5580 5581 5582 5582 5582 5580 5578 5576 5573 5570 5565 5560 5556 5550 5544 5539 5533 5527 5520 5514 5508 5502 5495 5489 5483 5478 5475 5473 5471 5471 5471 5472 5474
5567 5566 5565 5563 5564 5567 5569 5571 5572 5574 5576 5578 5579 5579 5579 5580 5579 5578 5576 5574 5571 5567 5563 5558 5553 5548 5543 5538 5532 5527 5521 5515 5510 5504 5499 5493 5488 5484 5481 5481 5479 5479 5480 5481
5562 5562 5562 5560 5560 5561 5565 5567 5568 5571 5572 5574 5575 5577 5578 5578 5578 5577 5575 5574 5571 5568 5564 5561 5556 5552 5547 5542 5537 5532 5527 5522 5517 5512 5507 5503 5498 5495 5492 5490 5488 5487 5487 5488
5558 5557 5557 5556 5555 5557 5559 5561 5563 5565 5570 5569 5572 5574 5575 5576 5576 5576 5574 5573 5570 5568 5566 5562 5558 5554 5550 5546 5541 5536 5532 5527 5522 5518 5514 5510 5506 5503 5501 5499 5497 5496 5496 5496
5553 5553 5553 5553 5552 5553 5554 5556 5557 5560 5563 5565 5567 5569 5571 5572 5573 5573 5572 5571 5569 5567 5565 5562 5560 5556 5552 5548 5544 5540 5535 5531 5527 5523 5519 5516 5513 5511 5508 5506 5504 5502 5502 5501
5549 5548 5549 5550 5550 5548 5550 5551 5554 5556 5557 5560 5561 5563 5566 5567 5568 5568 5568 5567 5566 5565 5563 5561 5559 5556 5553 5550 5546 5541 5538 5534 5530 5526 5523 5520 5517 5515 5512 5511 5510 5509 5508 5507
5541 5543 5544 5546 5545 5544 5545 5546 5549 5551 5552 5553 5557 5559 5561 5561 5562 5563 5563 5563 5562 5561 5560 5558 5556 5553 5551 5548 5545 5542 5538 5535 5532 5529 5526 5523 5520 5517 5515 5513 5512 5510 5509 5508
5537 5539 5540 5541 5541 5540 5539 5540 5542 5544 5547 5549 5552 5553 5553 5555 5555 5556 5557 5557 5557 5556 5555 5554 5552 5550 5547 5545 5542 5539 5537 5534 5531 5528 5525 5523 5521 5518 5516 5514 5512 5510 5509 5507
5533 5534 5536 5536 5536 5536 5534 5534 5535 5538 5540 5542 5543 5544 5546 5547 5548 5549 5550 5550 5550 5550 5549 5549 5547 5544 5543 5541 5538 5535 5533 5531 5528 5526 5523 5520 5518 5516 5514 5512 5510 5508 5506 5505
Wind_Speed
38 38 36 37 36 37 37 40 43 43 45 44 40 38 35 38 43 45 48 50 52 53 49 47 50 52 54 54 54 56 58 60 63 67 70 71 71 72 72 72 76 85 92 94
44 40 39 39 40 39 40 40 40 43 43 49 41 36 36 39 43 44 47 49 46 42 41 44 46 48 47 45 45 50 53 52 53 56 59 62 63 64 66 69 70 70 75 80
42 41 40 40 40 41 39 40 41 42 42 43 36 36 33 37 41 44 44 40 35 34 38 39 43 42 42 47 48 49 50 50 51 50 50 51 54 58 61 64 66 66 66 69
43 44 45 44 42 43 40 40 41 39 35 32 32 38 31 36 42 40 36 30 28 31 33 38 41 43 45 47 46 47 49 49 48 49 50 50 52 56 59 58 62 65 68 66
42 44 44 43 42 44 42 35 34 34 30 31 27 34 32 37 37 35 27 26 25 28 36 40 44 46 48 46 44 45 48 50 51 53 53 53 52 51 55 61 63 63 64 63
32 34 35 36 39 40 39 33 32 32 30 29 26 31 30 36 33 26 23 24 28 33 37 42 47 51 47 42 41 40 46 49 50 52 55 50 46 48 50 52 51 53 53 56
30 32 33 34 34 33 35 33 33 31 28 25 24 30 32 33 29 22 22 24 27 33 37 42 46 50 40 39 36 38 43 45 45 49 51 41 44 43 37 37 37 40 42 47
31 30 35 29 33 36 35 34 34 31 24 23 22 26 30 26 22 21 20 24 27 33 39 41 45 49 38 33 32 36 39 40 41 46 48 32 35 29 24 25 28 34 36 40
24 29 30 29 30 32 35 34 27 22 21 22 20 21 23 20 18 18 22 28 31 35 38 40 41 45 31 29 30 33 34 34 35 41 45 27 25 20 17 17 21 26 27 28
24 28 27 28 27 26 30 27 18 16 19 21 15 18 16 15 14 17 22 27 30 32 34 37 35 39 27 29 28 30 29 30 30 35 38 31 16 13 10 12 15 21 30 33
22 25 24 23 18 19 24 20 15 14 16 20 18 13 12 14 13 19 22 25 25 29 31 32 37 38 25 24 25 27 26 27 27 30 31 30 21 7 4 5 8 18 31 33
21 24 21 19 17 14 22 15 14 11 11 14 14 14 9 12 14 15 18 19 22 27 26 31 30 33 27 21 22 23 25 24 24 26 28 27 25 14 6 8 6 13 26 21
23 22 22 15 14 18 20 13 12 9 10 9 10 10 9 11 10 12 16 19 23 27 23 28 30 30 28 24 25 24 25 25 23 22 25 26 25 20 13 8 2 11 23 29
21 22 21 16 14 12 14 13 9 8 6 6 5 6 6 7 11 14 16 18 20 23 24 24 29 27 28 28 26 24 24 26 24 21 22 24 25 23 14 6 5 18 24 27
22 22 20 15 16 19 17 12 8 5 3 1 3 6 6 10 12 13 14 17 19 21 25 27 26 29 28 27 27 27 26 25 26 26 23 21 22 21 20 16 13 19 26 23
22 21 19 15 17 19 15 11 7 6 5 9 11 8 10 11 11 13 14 17 20 21 23 26 30 31 31 26 28 29 29 26 23 24 23 23 21 22 21 20 17 14 13 13
21 20 19 14 15 19 14 11 9 9 13 13 10 10 10 10 12 14 17 18 20 23 25 27 29 31 33 31 33 33 33 29 26 22 23 25 24 23 21 21 22 23 21 19
20 21 18 13 14 18 15 12 13 16 18 14 12 11 9 9 10 12 15 18 21 23 24 24 26 28 30 33 33 33 34 37 36 30 27 26 23 23 22 20 18 18 16 17
19 19 18 14 17 18 15 16 17 21 20 18 14 13 11 9 7 8 11 14 18 21 24 26 26 25 25 26 27 29 31 32 32 33 35 35 32 29 22 21 20 17 15 12
19 19 18 15 19 20 18 19 21 25 24 21 17 14 11 8 5 3 5 9 13 17 20 22 25 26 25 25 25 25 26 27 27 28 30 31 32 32 32 32 27 22 19 15
19 19 17 15 18 25 23 24 27 29 28 25 20 16 14 11 8 5 2 5 8 12 16 19 21 22 23 23 22 22 23 25 26 26 25 25 25 26 26 26 26 25 24 23
20 18 18 16 16 28 26 27 31 30 30 29 25 22 19 16 14 11 8 7 9 11 14 15 18 20 20 20 20 18 17 18 20 22 23 23 22 21 20 20 19 19 19 18
21 20 18 16 16 23 30 29 30 30 33 32 31 28 26 22 18 17 16 14 12 13 14 16 17 18 18 17 16 17 15 13 12 14 16 17 17 17 16 15 14 13 12 11
23 22 21 18 17 20 30 33 29 31 32 33 34 31 30 29 27 24 21 19 18 17 17 18 18 20 20 18 18 15 15 14 12 9 9 10 11 11 12 12 12 11 10 9
24 23 20 18 16 18 23 33 35 31 32 31 33 35 35 31 31 29 28 25 24 23 22 21 23 24 22 20 21 20 16 15 15 14 12 11 10 11 10 10 10 10 10 9
23 23 19 17 17 16 19 25 30 35 30 32 34 34 36 36 35 32 33 31 28 27 27 27 26 25 21 21 22 23 22 19 18 17 14 14 14 14 14 15 16 17 17 17
Wind_Direction
282 284 286 282 283 281 279 276 272 271 274 278 273 274 277 281 281 285 288 293 297 296 295 295 295 294 294 295 292 288 286 284 282 280 278 275 271 269 267 263 260 256 252 250
279 278 277 281 285 284 280 279 275 272 276 280 271 274 281 282 284 290 296 299 298 298 300 299 299 299 298 297 294 297 298 292 284 280 278 275 272 267 263 261 257 254 252 250
278 276 276 277 280 283 281 278 276 276 274 271 272 275 280 284 288 295 299 299 299 303 303 305 304 304 302 299 300 302 302 295 290 284 280 278 275 270 266 261 257 252 250 247
279 276 274 273 273 275 279 283 276 270 267 267 274 280 284 290 296 300 302 299 302 306 304 306 311 312 310 304 306 304 304 301 297 292 288 282 274 266 260 256 254 251 248 247
278 277 273 269 267 269 275 277 278 267 265 276 277 281 293 296 300 303 299 297 296 302 306 310 312 313 311 309 308 305 306 302 301 300 295 291 282 272 263 258 254 250 247 245
289 287 281 277 272 272 269 265 264 263 269 275 278 287 299 298 304 301 294 292 298 305 310 313 316 317 315 311 309 308 307 306 306 303 300 297 286 271 264 259 252 249 247 245
283 287 288 277 275 266 263 252 255 262 268 275 285 290 297 305 304 297 295 295 306 312 318 316 318 320 317 313 312 311 309 310 311 307 309 309 283 276 271 258 246 244 240 245
286 282 287 270 269 271 259 252 252 259 269 275 294 302 303 307 306 297 297 297 306 311 316 318 321 323 318 321 317 314 315 317 319 313 320 319 296 285 270 254 243 240 252 250
283 288 283 273 275 274 257 250 240 253 269 284 304 299 310 311 304 302 298 297 310 317 320 320 323 329 325 326 322 321 322 326 327 322 326 335 307 291 275 259 248 253 236 198
289 290 285 281 284 281 249 231 231 250 272 287 313 304 318 304 308 308 314 314 320 323 322 328 333 337 330 329 329 328 328 334 338 333 334 345 332 304 287 262 243 221 205 197
289 295 294 284 283 268 233 218 229 252 277 301 314 314 323 312 314 314 320 323 328 325 329 337 334 343 341 340 340 338 336 343 349 348 345 347 352 313 270 275 237 214 199 202
298 303 304 285 278 252 242 229 238 259 286 300 317 327 330 321 323 325 334 340 341 340 348 350 349 360 2 355 351 349 349 353 359 357 355 360 355 352 305 290 288 213 200 167
302 310 312 289 260 241 225 233 250 274 290 291 325 332 329 337 352 6 356 354 358 357 351 357 359 4 11 8 7 4 1 6 8 8 6 10 18 17 12 3 15 185 185 199
301 308 309 291 256 230 224 237 250 274 270 305 333 340 356 30 17 10 9 4 8 14 10 6 9 10 10 19 14 6 12 16 19 24 21 23 29 31 29 26 139 157 168 181
302 307 307 284 259 224 219 234 243 246 266 12 86 94 60 43 29 23 15 12 17 20 25 24 20 21 17 10 14 16 21 19 19 24 34 39 44 43 44 71 121 151 169 167
298 304 307 279 250 210 222 223 219 203 151 135 124 108 75 55 45 37 32 26 28 30 29 28 31 33 26 20 19 22 30 30 24 28 40 46 50 59 66 65 70 96 131 162
299 301 304 290 251 202 219 211 193 181 154 148 141 118 92 78 71 61 54 44 38 34 31 31 32 32 35 39 35 31 31 34 37 38 43 55 56 59 64 71 84 98 107 120
294 298 302 299 239 198 210 202 189 177 166 166 157 139 122 105 84 68 58 53 47 43 37 33 30 32 34 35 36 36 35 38 40 43 42 41 53 65 69 72 74 78 81 86
291 293 298 303 229 207 212 201 194 185 180 183 175 166 155 142 112 77 58 48 45 42 38 37 38 35 37 39 39 39 41 42 43 44 48 52 54 55 60 69 78 83 86 93
289 290 291 291 223 204 211 206 198 195 194 197 193 186 180 180 166 118 61 42 35 33 31 31 31 33 36 39 39 40 41 42 41 45 51 53 55 58 62 67 70 72 72 76
283 284 284 286 232 210 216 210 205 204 205 205 209 207 201 215 218 225 297 358 11 12 15 17 19 23 25 28 32 37 39 40 42 43 45 49 54 59 62 62 66 69 71 74
272 275 278 280 259 223 218 220 215 214 215 214 219 224 224 228 242 249 266 296 322 338 346 355 1 6 11 15 18 23 30 35 38 38 40 43 47 52 53 57 62 66 68 71
263 264 268 272 274 245 223 228 224 223 223 222 225 229 237 240 245 257 268 277 292 305 319 329 336 343 351 357 4 10 14 17 22 32 38 39 40 43 46 49 52 56 56 58
257 263 267 269 267 261 241 227 235 236 234 233 232 234 237 245 253 255 263 273 282 290 301 309 318 323 331 336 341 348 351 355 359 0 5 12 19 27 28 27 29 30 28 23
252 259 268 273 265 265 258 245 234 240 241 243 244 243 242 240 249 257 260 266 274 282 290 297 305 308 315 323 323 323 331 334 338 335 333 328 325 327 333 336 336 336 334 332
256 259 262 269 267 254 256 260 252 242 250 247 245 249 248 248 248 251 257 263 269 276 284 288 289 293 306 310 306 307 314 319 320 321 317 313 310 307 305 307 309 311 309 307